timestamp,surface_pressure_avg,surface_temp_avg,battery_voltage,lat,long
2018-09-20 00:00:00+00:00,261.6046,13.8,13.05,47.84626,-54.09684
2018-09-20 00:10:00+00:00,262.9998,13.8,12.97,47.84626,-54.09684
2018-09-20 00:20:00+00:00,260.6814,13.8,13.05,47.84626,-54.09684
2018-09-20 00:30:00+00:00,258.8114,13.78,13.05,47.84626,-54.09684
2018-09-20 00:40:00+00:00,256.7948,13.76,13.13,47.84626,-54.09684
2018-09-20 00:50:00+00:00,249.6347,13.8,13.13,47.84626,-54.09684
2018-09-20 01:00:00+00:00,243.2031,13.86,13.05,47.84626,-54.09684
2018-09-20 01:10:00+00:00,242.1547,13.85,12.97,47.84626,-54.09684
2018-09-20 01:20:00+00:00,239.8748,13.82,13.05,47.84626,-54.09684
2018-09-20 01:30:00+00:00,237.3114,13.8,13.05,47.84626,-54.09684
2018-09-20 01:40:00+00:00,238.0431,13.8,13.13,47.84626,-54.09684
2018-09-20 01:50:00+00:00,242.8231,13.8,13.13,47.84626,-54.09684
2018-09-20 02:00:00+00:00,242.9747,13.7,13.05,47.84626,-54.09684
2018-09-20 02:10:00+00:00,239.6931,13.69,12.97,47.84626,-54.09684
2018-09-20 02:20:00+00:00,237.4299,13.7,13.05,47.84626,-54.09684
2018-09-20 02:30:00+00:00,238.3247,13.8,13.05,47.84626,-54.09684
2018-09-20 02:40:00+00:00,238.8615,13.8,13.05,47.84626,-54.09684
2018-09-20 02:50:00+00:00,239.6898,13.75,13.05,47.84626,-54.09684
2018-09-20 03:00:00+00:00,239.7497,13.74,13.05,47.84626,-54.09684
2018-09-20 03:10:00+00:00,239.3581,13.7,12.97,47.84626,-54.09684
2018-09-20 03:20:00+00:00,241.7748,13.74,13.05,47.84626,-54.09684
2018-09-20 03:30:00+00:00,245.9548,13.6,13.05,47.84626,-54.09684
2018-09-20 03:40:00+00:00,243.1115,13.51,13.05,47.84626,-54.09684
2018-09-20 03:50:00+00:00,239.618,13.5,13.05,47.84626,-54.09684
2018-09-20 04:00:00+00:00,240.7314,13.55,13.05,47.84626,-54.09684
2018-09-20 04:10:00+00:00,241.2796,13.59,12.97,47.84626,-54.09684
2018-09-20 04:20:00+00:00,243.4648,13.59,13.05,47.84626,-54.09684
2018-09-20 04:30:00+00:00,246.138,13.5,13.05,47.84626,-54.09684
2018-09-20 04:40:00+00:00,246.7631,13.5,13.05,47.84626,-54.09684
2018-09-20 04:50:00+00:00,248.9513,13.5,13.05,47.84626,-54.09684
2018-09-20 05:00:00+00:00,252.6081,13.5,13.05,47.84626,-54.09684
2018-09-20 05:10:00+00:00,255.7197,13.52,12.97,47.84626,-54.09684
2018-09-20 05:20:00+00:00,257.8397,13.5,13.05,47.84626,-54.09684
2018-09-20 05:30:00+00:00,262.2781,13.5,13.05,47.84626,-54.09684
2018-09-20 05:40:00+00:00,266.308,13.44,13.05,47.84626,-54.09684
2018-09-20 05:50:00+00:00,268.8564,13.4,13.05,47.84626,-54.09684
2018-09-20 06:00:00+00:00,272.6281,13.4,13.05,47.84626,-54.09684
2018-09-20 06:10:00+00:00,280.3814,13.13,12.97,47.84626,-54.09684
2018-09-20 06:20:00+00:00,286.5314,13.06,13.05,47.84626,-54.09684
2018-09-20 06:30:00+00:00,287.2131,13.2,13.05,47.84626,-54.09684
2018-09-20 06:40:00+00:00,289.873,13.2,13.05,47.84626,-54.09684
2018-09-20 06:50:00+00:00,295.103,13.27,13.05,47.84626,-54.09684
2018-09-20 07:00:00+00:00,295.363,13.3,12.97,47.84626,-54.09684
2018-09-20 07:10:00+00:00,294.0779,13.2,12.97,47.84626,-54.09684
2018-09-20 07:20:00+00:00,298.0797,12.92,13.05,47.84626,-54.09684
2018-09-20 07:30:00+00:00,300.7565,12.7,13.05,47.84626,-54.09684
2018-09-20 07:40:00+00:00,304.2164,12.3,13.05,47.84626,-54.09684
2018-09-20 07:50:00+00:00,308.848,12.02,13.05,47.84626,-54.09684
2018-09-20 08:00:00+00:00,311.7563,10.01,12.97,47.84626,-54.09684
2018-09-20 08:10:00+00:00,307.4763,10.22,12.97,47.84626,-54.09684
2018-09-20 08:20:00+00:00,311.9163,9.52,12.97,47.84626,-54.09684
2018-09-20 08:30:00+00:00,315.2864,9.4,13.05,47.84626,-54.09684
2018-09-20 08:40:00+00:00,311.4914,9.28,13.05,47.84626,-54.09684
2018-09-20 08:50:00+00:00,306.638,9.88,13.05,47.84626,-54.09684
2018-09-20 09:00:00+00:00,310.6897,9.9,12.97,47.84626,-54.09684
2018-09-20 09:10:00+00:00,312.318,11.51,12.89,47.84626,-54.09684
2018-09-20 09:20:00+00:00,305.5863,12.89,12.97,47.84626,-54.09684
2018-09-20 09:30:00+00:00,304.948,11.7,13.05,47.84626,-54.09684
2018-09-20 09:40:00+00:00,309.1113,10.4,13.05,47.84626,-54.09684
2018-09-20 09:50:00+00:00,304.8914,12.78,13.05,47.84626,-54.09684
2018-09-20 10:00:00+00:00,296.2047,12.87,12.97,47.84626,-54.09684
2018-09-20 10:10:00+00:00,294.6113,12.37,12.89,47.84626,-54.09684
2018-09-20 10:20:00+00:00,291.6447,12.5,13.05,47.84626,-54.09684
2018-09-20 10:30:00+00:00,280.8798,12.63,13.05,47.84626,-54.09684
2018-09-20 10:40:00+00:00,272.0081,12.8,13.13,47.84626,-54.09684
2018-09-20 10:50:00+00:00,268.3481,12.82,13.21,47.84626,-54.09684
2018-09-20 11:00:00+00:00,266.8547,12.83,13.21,47.84626,-54.09684
2018-09-20 11:10:00+00:00,259.7448,12.82,13.21,47.84626,-54.09684
2018-09-20 11:20:00+00:00,251.2297,12.8,13.29,47.84626,-54.09684
2018-09-20 11:30:00+00:00,247.0597,12.8,13.44,47.84626,-54.09684
2018-09-20 11:40:00+00:00,248.8964,12.8,13.76,47.84626,-54.09684
2018-09-20 11:50:00+00:00,245.0314,12.8,15.67,47.84626,-54.09684
2018-09-20 12:00:00+00:00,236.4114,12.8,14.24,47.84626,-54.09684
2018-09-20 12:10:00+00:00,233.6547,12.7,13.92,47.84626,-54.09684
2018-09-20 12:20:00+00:00,233.0331,12.77,15.75,47.84626,-54.09684
2018-09-20 12:30:00+00:00,229.0948,12.8,14.48,47.84626,-54.09684
2018-09-20 12:40:00+00:00,229.3148,12.8,14.48,47.84626,-54.09684
2018-09-20 12:50:00+00:00,229.3865,12.82,14.48,47.84626,-54.09684
2018-09-20 13:00:00+00:00,225.9548,12.86,14.32,47.84626,-54.09684
2018-09-20 13:10:00+00:00,224.3498,12.82,14.32,47.84626,-54.09684
2018-09-20 13:20:00+00:00,225.3148,12.8,14.96,47.84626,-54.09684
2018-09-20 13:30:00+00:00,224.8248,12.8,15.44,47.84626,-54.09684
2018-09-20 13:40:00+00:00,223.3865,12.8,14.48,47.84626,-54.09684
2018-09-20 13:50:00+00:00,223.6698,12.8,16.63,47.84626,-54.09684
2018-09-20 14:00:00+00:00,223.8781,12.8,14.64,47.84626,-54.09684
2018-09-20 14:10:00+00:00,223.8581,12.8,14.4,47.84626,-54.09684
2018-09-20 14:20:00+00:00,225.4398,12.8,14.56,47.84626,-54.09684
2018-09-20 14:30:00+00:00,225.3031,12.8,14.48,47.84626,-54.09684
2018-09-20 14:40:00+00:00,220.5681,12.8,14.56,47.84626,-54.09684
2018-09-20 14:50:00+00:00,217.6248,12.8,14.56,47.84626,-54.09684
2018-09-20 15:00:00+00:00,220.7631,12.8,14.56,47.84626,-54.09684
2018-09-20 15:10:00+00:00,223.8365,12.8,14.4,47.84626,-54.09684
2018-09-20 15:20:00+00:00,225.8398,12.8,14.64,47.84626,-54.09684
2018-09-20 15:30:00+00:00,229.8614,11.99,14.56,47.84626,-54.09684
2018-09-20 15:40:00+00:00,231.9781,11.0,14.56,47.84626,-54.09684
2018-09-20 15:50:00+00:00,232.0515,10.9,14.56,47.84626,-54.09684
2018-09-20 16:00:00+00:00,235.9598,11.05,14.64,47.84626,-54.09684
2018-09-20 16:10:00+00:00,241.5565,11.29,14.64,47.84626,-54.09684
2018-09-20 16:20:00+00:00,241.9715,11.99,14.56,47.84626,-54.09684
2018-09-20 16:30:00+00:00,244.3714,11.97,14.56,47.84626,-54.09684
2018-09-20 16:40:00+00:00,249.693,11.75,14.48,47.84626,-54.09684
2018-09-20 16:50:00+00:00,249.9448,11.1,14.48,47.84626,-54.09684
2018-09-20 17:00:00+00:00,249.5714,10.9,14.48,47.84626,-54.09684
2018-09-20 17:10:00+00:00,255.6248,10.5,14.32,47.84626,-54.09684
2018-09-20 17:20:00+00:00,261.1848,10.4,14.48,47.84626,-54.09684
2018-09-20 17:30:00+00:00,262.5748,10.37,14.48,47.84626,-54.09684
2018-09-20 17:40:00+00:00,264.4897,10.36,14.4,47.84626,-54.09684
2018-09-20 17:50:00+00:00,270.0814,10.38,14.56,47.84626,-54.09684
2018-09-20 18:00:00+00:00,275.9031,11.89,14.48,47.84626,-54.09684
2018-09-20 18:10:00+00:00,281.6714,10.38,14.32,47.84626,-54.09684
2018-09-20 18:20:00+00:00,285.1847,9.9,14.4,47.84626,-54.09684
2018-09-20 18:30:00+00:00,290.2097,9.95,14.32,47.84626,-54.09684
2018-09-20 18:40:00+00:00,294.7964,9.96,14.32,47.84626,-54.09684
2018-09-20 18:50:00+00:00,299.278,9.9,14.24,47.84626,-54.09684
2018-09-20 19:00:00+00:00,299.1931,9.8,14.16,47.84626,-54.09684
2018-09-20 19:10:00+00:00,304.1381,9.7,14.08,47.84626,-54.09684
2018-09-20 19:20:00+00:00,314.8713,9.54,14.08,47.84626,-54.09684
2018-09-20 19:30:00+00:00,322.3579,9.35,14.08,47.84626,-54.09684
2018-09-20 19:40:00+00:00,318.9763,9.6,14.08,47.84626,-54.09684
2018-09-20 19:50:00+00:00,318.5329,9.0,14.08,47.84626,-54.09684
2018-09-20 20:00:00+00:00,327.9597,8.9,14.0,47.84626,-54.09684
2018-09-20 20:10:00+00:00,331.4413,8.94,13.92,47.84626,-54.09684
2018-09-20 20:20:00+00:00,325.7696,9.0,13.92,47.84626,-54.09684
2018-09-20 20:30:00+00:00,325.4197,8.8,13.84,47.84626,-54.09684
2018-09-20 20:40:00+00:00,329.308,8.7,13.84,47.84626,-54.09684
2018-09-20 20:50:00+00:00,327.538,8.7,13.84,47.84626,-54.09684
2018-09-20 21:00:00+00:00,322.7629,8.6,13.76,47.84626,-54.09684
2018-09-20 21:10:00+00:00,324.4147,8.6,13.6,47.84626,-54.09684
2018-09-20 21:20:00+00:00,326.0181,8.6,13.53,47.84626,-54.09684
2018-09-20 21:30:00+00:00,326.2962,8.6,13.53,47.84626,-54.09684
2018-09-20 21:40:00+00:00,327.5432,8.5,13.44,47.84626,-54.09684
2018-09-20 21:50:00+00:00,325.8196,8.4,13.44,47.84626,-54.09684
2018-09-20 22:00:00+00:00,322.4014,8.1,13.37,47.84626,-54.09684
2018-09-20 22:10:00+00:00,320.5548,7.9,13.21,47.84626,-54.09684
2018-09-20 22:20:00+00:00,318.4813,7.8,13.21,47.84626,-54.09684
2018-09-20 22:30:00+00:00,315.4913,7.84,13.21,47.84626,-54.09684
2018-09-20 22:40:00+00:00,314.438,7.8,13.21,47.84626,-54.09684
2018-09-20 22:50:00+00:00,311.878,7.8,13.21,47.84626,-54.09684
2018-09-20 23:00:00+00:00,307.083,7.8,13.13,47.84626,-54.09684
2018-09-20 23:10:00+00:00,299.6964,7.8,13.05,47.84626,-54.09684
2018-09-20 23:20:00+00:00,295.428,7.79,13.05,47.84626,-54.09684
2018-09-20 23:30:00+00:00,293.928,7.79,13.13,47.84626,-54.09684
2018-09-20 23:40:00+00:00,288.653,7.8,13.13,47.84626,-54.09684
2018-09-20 23:50:00+00:00,277.5897,7.86,13.13,47.84626,-54.09684
